[[{"header":{"parameterUnit":"m.s-1","parameterCategory":1,"la1":30.2991,"la2":30.254,"lo1":-89.0895,"lo2":-89.0444,"dy":0.0017,"dx":0.0017,"nx":28,"ny":28,"refTime":"2024-07-28T03:00:00:Z","depth":0,"parameterNumber":2,"parameterNumberName":"U-component_of_WINDS"},"data":[0,0,0,0,0,0,0,0,0,0,0,0,0,0,0,0,0,0,0,0,0,0,0,0,0,0,0,0,0,0,0,0,0,0,0,0,0,0,0,0,0,0,0,0,0,0,0,0,0,0,0,0,0,0,0,0,0,0,-0.33,-0.3298,0,-0.3192,-0.3191,-0.319,-0.312,-0.3119,-0.3119,-0.3118,-0.3004,-0.3001,-0.2999,0,0,0,0,0,0,0,0,0,0,0,0,0,-0.3441,-0.3439,-0.33,-0.3298,-0.3297,-0.3192,-0.3191,-0.3189,-0.312,-0.3119,-0.3119,-0.3118,-0.3005,-0.3002,-0.2999,0,0,0,0,0,0,0,0,0,0,0,0,0,-0.3361,-0.3438,-0.33,-0.325,-0.3244,-0.3193,-0.3191,-0.3189,-0.312,-0.3119,-0.3119,-0.3118,-0.3006,-0.3002,-0.2998,-0.2987,0,0,-0.2986,-0.2984,0,0,0,0,0,0,0,0,-0.3366,-0.3356,-0.3258,-0.3253,-0.3247,-0.3169,-0.3199,-0.3121,-0.312,-0.3167,-0.3118,-0.3118,-0.3059,-0.3051,-0.3032,-0.2981,-0.2976,-0.2986,-0.2983,-0.2982,-0.298,0,0,0,0,0,0,0,-0.3372,-0.336,-0.3257,-0.3257,-0.325,-0.3231,-0.3219,-0.3184,-0.3118,-0.3163,-0.3158,-0.3146,-0.3056,-0.3036,-0.3029,-0.2975,-0.2986,-0.2982,-0.298,-0.2978,-0.291,-0.291,0,0,0,0,0,0,-0.3386,-0.3365,-0.326,-0.3254,-0.3306,-0.323,-0.3216,-0.3194,-0.3118,-0.3106,-0.3147,-0.3143,-0.3043,-0.3033,-0.3024,-0.3006,-0.2982,-0.2978,-0.2976,-0.2909,-0.291,-0.291,0,0,0,0,0,0,-0.3389,-0.3377,-0.3265,-0.3308,-0.3292,-0.3228,-0.3204,-0.3193,-0.3173,-0.3106,-0.3093,-0.3139,-0.3042,-0.303,-0.2997,-0.3001,-0.2976,-0.2972,-0.2908,-0.2909,-0.291,-0.297,0,0,0,0,0,0,-0.3393,-0.3378,-0.3374,-0.3309,-0.329,-0.324,-0.3204,-0.3191,-0.3167,-0.3161,-0.3095,-0.3083,-0.3041,-0.3003,-0.2993,-0.2995,-0.2969,-0.2908,-0.2909,-0.291,-0.2967,-0.2972,-0.2977,0,0,0,0,0,-0.3399,-0.3394,-0.3374,-0.3362,-0.3284,-0.3241,-0.323,-0.3182,-0.3167,-0.3162,-0.3119,-0.3086,-0.3003,-0.3001,-0.2988,-0.2989,-0.2907,-0.2909,-0.291,-0.2965,-0.2971,-0.2977,0,0,0,0,0,0,-0.346,-0.3385,-0.3362,-0.3336,-0.3296,-0.3229,-0.3221,-0.3191,-0.3152,-0.3148,-0.3089,-0.3075,-0.3048,-0.3015,-0.3014,-0.2974,-0.2951,-0.295,-0.2997,-0.3003,-0.3008,-0.3016,-0.2966,0,0,0,0,0,-0.3471,-0.3444,-0.3378,-0.3362,-0.3343,-0.3286,-0.3265,-0.3232,-0.3187,-0.3169,-0.3123,-0.308,-0.3044,-0.3021,-0.2985,-0.2962,-0.2947,-0.2957,-0.2962,-0.2966,-0.2966,-0.2952,-0.2956,-0.2915,-0.2915,-0.2915,0,0,-0.3492,-0.3448,-0.3434,-0.3373,-0.3338,-0.331,-0.3272,-0.3243,-0.3222,-0.3164,-0.3131,-0.3096,-0.3043,-0.3016,-0.3002,-0.2988,-0.2974,-0.2968,-0.2972,-0.2969,-0.2954,-0.2958,-0.2961,-0.2915,-0.2915,-0.2915,0,0,-0.3518,-0.3481,-0.3464,-0.343,-0.3378,-0.334,-0.3336,-0.3274,-0.3249,-0.3215,-0.3172,-0.3145,-0.3084,-0.3048,-0.3023,-0.3036,-0.3004,-0.3025,-0.3051,-0.3039,-0.3042,-0.3044,-0.3049,-0.3052,-0.3025,-0.3026,-0.3026,0,-0.3551,-0.3508,-0.3459,-0.3433,-0.3408,-0.3357,-0.3338,-0.3307,-0.3245,-0.3228,-0.3214,-0.3138,-0.3098,-0.3062,-0.3066,-0.3047,-0.304,-0.3032,-0.3046,-0.3048,-0.3049,-0.3053,-0.3055,-0.3029,-0.3028,-0.3028,-0.3028,0,-0.3551,-0.3522,-0.3514,-0.3458,-0.3431,-0.3409,-0.3356,-0.3335,-0.3305,-0.3268,-0.3234,-0.3186,-0.3139,-0.3128,-0.3097,-0.3087,-0.3081,-0.3057,-0.3032,-0.3057,-0.306,-0.3061,-0.3033,-0.3032,-0.3031,-0.303,0,0,-0.361,-0.3528,-0.3526,-0.35,-0.3439,-0.3415,-0.3391,-0.3347,-0.333,-0.3289,-0.3267,-0.3218,-0.3196,-0.3167,-0.3131,-0.312,-0.3134,-0.3098,-0.3096,-0.3106,-0.3121,-0.3139,-0.3142,-0.3113,-0.3113,-0.3113,-0.3126,0,-0.3626,-0.3582,-0.3538,-0.3509,-0.3481,-0.3433,-0.3412,-0.3372,-0.3337,-0.3308,-0.3269,-0.3235,-0.3209,-0.3191,-0.3178,-0.3136,-0.3137,-0.3134,-0.3091,-0.309,-0.3106,-0.3143,-0.3162,-0.3176,-0.3126,-0.3126,-0.3127,0,-0.3639,-0.3602,-0.3571,-0.3514,-0.35,-0.3483,-0.3439,-0.3412,-0.3365,-0.3341,-0.3309,-0.3272,-0.3244,-0.3223,-0.3183,-0.3182,-0.3162,-0.3139,-0.3138,-0.3132,-0.311,-0.3138,-0.3179,-0.3182,-0.3128,-0.3128,-0.3128,0,-0.3686,-0.3628,-0.3602,-0.3581,-0.3514,-0.3503,-0.3474,-0.3427,-0.3403,-0.3365,-0.3349,-0.3307,-0.3284,-0.3252,-0.3204,-0.3193,-0.3169,-0.3144,-0.3148,-0.3149,-0.3144,-0.3145,-0.3183,-0.3132,-0.3132,-0.3132,-0.3132,0,-0.3708,-0.3691,-0.3623,-0.3607,-0.3586,-0.3535,-0.3516,-0.3482,-0.3441,-0.3417,-0.3372,-0.335,-0.3289,-0.326,-0.3223,-0.3195,-0.3185,-0.3164,-0.3154,-0.3168,-0.3171,-0.3154,-0.3151,-0.3132,-0.3132,-0.3132,-0.3132,0,-0.3756,-0.371,-0.3679,-0.3618,-0.3603,-0.359,-0.3537,-0.352,-0.3483,-0.3454,-0.3444,-0.3386,-0.335,-0.33,-0.3247,-0.3222,-0.3199,-0.3184,-0.3216,-0.321,-0.3216,-0.3216,-0.3244,-0.3245,-0.3194,-0.3195,-0.3195,0,-0.3773,-0.3759,-0.3698,-0.3679,-0.3653,-0.3623,-0.36,-0.3549,-0.3526,-0.3473,-0.3461,-0.3422,-0.3387,-0.3331,-0.3284,-0.3244,-0.3227,-0.3239,-0.322,-0.3235,-0.3227,-0.3229,-0.3227,-0.3244,-0.3245,-0.3245,-0.3246,0,-0.3809,-0.3787,-0.3755,-0.3716,-0.369,-0.3656,-0.362,-0.3607,-0.3548,-0.3525,-0.3488,-0.3462,-0.3409,-0.337,-0.3324,-0.3293,-0.326,-0.3253,-0.3251,-0.3265,-0.3284,-0.3274,-0.3228,-0.3252,-0.3251,-0.3251,-0.3251,-0.325,-0.3841,-0.3827,-0.3782,-0.3749,-0.3717,-0.3684,-0.3665,-0.3627,-0.3596,-0.3551,-0.3522,-0.3487,-0.3441,-0.3376,-0.3346,-0.3317,-0.3304,-0.3302,-0.3301,-0.3302,-0.3306,-0.3289,-0.3309,-0.3308,-0.3308,-0.3308,-0.3308,0,-0.3874,-0.3844,-0.3813,-0.3766,-0.3739,-0.3712,-0.3671,-0.3651,-0.362,-0.3581,-0.3549,-0.3507,-0.3469,-0.342,-0.3379,-0.3365,-0.3349,-0.3356,-0.3356,-0.335,-0.3321,-0.3326,-0.337,-0.337,-0.337,-0.337,-0.337,-0.337,-0.3889,-0.3863,-0.3836,-0.3794,-0.3763,-0.3729,-0.3708,-0.3678,-0.3647,-0.3602,-0.3572,-0.354,-0.3497,-0.3452,-0.3417,-0.3403,-0.339,-0.3402,-0.3384,-0.3357,-0.3352,-0.3346,-0.3351,-0.3399,-0.34,-0.3415,-0.3415,-0.3415]},{"header":{"parameterUnit":"m.s-1","parameterCategory":1,"la1":30.2991,"la2":30.254,"lo1":-89.0895,"lo2":-89.0444,"dy":0.0017,"dx":0.0017,"nx":28,"ny":28,"refTime":"2024-07-28T03:00:00:Z","depth":0,"parameterNumber":3,"parameterNumberName":"V-component_of_WINDS"},"data":[0,0,0,0,0,0,0,0,0,0,0,0,0,0,0,0,0,0,0,0,0,0,0,0,0,0,0,0,0,0,0,0,0,0,0,0,0,0,0,0,0,0,0,0,0,0,0,0,0,0,0,0,0,0,0,0,0,0,2.4486,2.4486,0,2.4451,2.445,2.445,2.4479,2.448,2.4481,2.4483,2.4442,2.444,2.4438,0,0,0,0,0,0,0,0,0,0,0,0,0,2.4574,2.4573,2.4486,2.4486,2.4485,2.4451,2.445,2.445,2.4479,2.448,2.4482,2.4483,2.4443,2.444,2.4437,0,0,0,0,0,0,0,0,0,0,0,0,0,2.4537,2.4572,2.4486,2.4496,2.4496,2.4451,2.445,2.445,2.4478,2.448,2.4482,2.4484,2.4444,2.444,2.4437,2.4379,0,0,2.4427,2.4425,0,0,0,0,0,0,0,0,2.4539,2.4534,2.4495,2.4495,2.4495,2.4471,2.4467,2.4426,2.4478,2.4485,2.4483,2.4485,2.445,2.4446,2.4435,2.4378,2.4376,2.4427,2.4425,2.4423,2.4422,0,0,0,0,0,0,0,2.4542,2.4535,2.4472,2.4494,2.4494,2.45,2.4497,2.4459,2.4457,2.4484,2.4487,2.4482,2.445,2.4439,2.4435,2.4375,2.4427,2.4424,2.4422,2.442,2.4267,2.4265,0,0,0,0,0,0,2.4544,2.4537,2.4473,2.4471,2.4522,2.4497,2.4493,2.4477,2.4458,2.4457,2.4481,2.4484,2.4443,2.4438,2.4433,2.4363,2.4423,2.442,2.4418,2.4269,2.4266,2.4264,0,0,0,0,0,0,2.4546,2.4538,2.4474,2.4505,2.4497,2.4494,2.4475,2.4475,2.4463,2.4455,2.4454,2.4469,2.4445,2.4438,2.4393,2.4362,2.4419,2.4415,2.4271,2.4268,2.4265,2.4223,0,0,0,0,0,0,2.4548,2.4538,2.4517,2.4504,2.4495,2.4435,2.4473,2.4473,2.4458,2.4462,2.4444,2.4443,2.4446,2.4397,2.4389,2.4359,2.4413,2.4274,2.427,2.4266,2.4227,2.4219,2.4212,0,0,0,0,0,2.4551,2.4506,2.4516,2.4508,2.4469,2.4434,2.4428,2.4434,2.4456,2.4434,2.4428,2.4443,2.4367,2.4392,2.4384,2.4351,2.4276,2.4271,2.4266,2.4231,2.4221,2.4212,0,0,0,0,0,0,2.4515,2.4505,2.4516,2.4466,2.445,2.4439,2.4411,2.4423,2.4401,2.4405,2.4411,2.4407,2.4359,2.4351,2.4379,2.4294,2.4325,2.4318,2.4301,2.4291,2.4284,2.4286,2.441,0,0,0,0,0,2.4501,2.4475,2.4467,2.4423,2.4415,2.4414,2.4399,2.4405,2.4389,2.4382,2.4373,2.4356,2.4328,2.4309,2.4284,2.4227,2.4222,2.42,2.4193,2.4187,2.418,2.4148,2.4137,2.4249,2.4249,2.4249,0,0,2.4472,2.4464,2.4446,2.4416,2.4405,2.4375,2.4409,2.4376,2.4354,2.4377,2.4333,2.4326,2.4307,2.4255,2.4232,2.4247,2.4149,2.4181,2.4176,2.4172,2.4142,2.4131,2.4122,2.4245,2.4246,2.4246,0,0,2.4404,2.4396,2.4358,2.4346,2.433,2.433,2.432,2.4307,2.4303,2.426,2.4276,2.4249,2.4202,2.4187,2.4173,2.41,2.4112,2.4091,2.4051,2.4019,2.401,2.4003,2.3974,2.3965,2.4085,2.4085,2.4085,0,2.437,2.4327,2.4336,2.4303,2.4288,2.4309,2.427,2.4258,2.4232,2.4221,2.4239,2.4179,2.4168,2.4112,2.4095,2.4084,2.4072,2.4092,2.4011,2.4004,2.3996,2.397,2.3959,2.4082,2.4083,2.4083,2.4083,0,2.4285,2.4255,2.4226,2.4203,2.4185,2.4149,2.4151,2.4132,2.4139,2.4137,2.4091,2.4079,2.405,2.4038,2.4044,2.3983,2.3993,2.4011,2.4041,2.3983,2.3958,2.3948,2.4079,2.408,2.408,2.4081,0,0,2.4191,2.4174,2.4163,2.4152,2.4135,2.4112,2.4076,2.4049,2.4032,2.4014,2.3983,2.3942,2.3959,2.3943,2.3948,2.3921,2.3861,2.3942,2.3942,2.3926,2.3791,2.3776,2.3764,2.387,2.3868,2.3867,2.3791,0,2.4121,2.406,2.4067,2.4008,2.3979,2.3999,2.3967,2.3953,2.3949,2.3924,2.392,2.389,2.3916,2.3906,2.388,2.3874,2.3834,2.388,2.3839,2.3837,2.3841,2.3751,2.3735,2.3664,2.3782,2.378,2.3779,0,2.403,2.401,2.3949,2.3936,2.3924,2.3896,2.3871,2.3847,2.3831,2.383,2.3813,2.3823,2.3785,2.3818,2.3765,2.3796,2.378,2.3775,2.3772,2.3767,2.3803,2.3741,2.3642,2.3631,2.3764,2.3765,2.3766,0,2.3966,2.3924,2.3881,2.3871,2.3856,2.3835,2.3827,2.3813,2.3796,2.3774,2.3763,2.3737,2.3722,2.3701,2.3703,2.3727,2.3648,2.3682,2.3645,2.3645,2.3626,2.3626,2.3521,2.3619,2.3619,2.3619,2.3619,0,2.3885,2.3846,2.3852,2.3825,2.3781,2.379,2.3746,2.374,2.3727,2.3699,2.3714,2.3687,2.3692,2.3664,2.3666,2.362,2.3614,2.3611,2.3611,2.3609,2.3609,2.3597,2.3601,2.3616,2.3617,2.3617,2.3618,0,2.3805,2.3808,2.3762,2.3751,2.3748,2.3716,2.3706,2.368,2.3678,2.3642,2.3634,2.3631,2.3599,2.36,2.3563,2.3564,2.3508,2.3515,2.3514,2.3514,2.3476,2.3479,2.3358,2.3341,2.3452,2.3451,2.345,0,2.3753,2.3723,2.3709,2.3692,2.3683,2.3655,2.3639,2.3646,2.3627,2.3606,2.3582,2.3552,2.3528,2.3476,2.347,2.3442,2.3447,2.3406,2.3442,2.344,2.3444,2.3445,2.3441,2.3398,2.3397,2.3396,2.3395,0,2.3658,2.3661,2.3637,2.3613,2.3593,2.3574,2.3557,2.3541,2.3546,2.3525,2.3493,2.3474,2.3438,2.3407,2.338,2.337,2.3382,2.3384,2.3374,2.3369,2.3369,2.3367,2.3492,2.3386,2.3387,2.3388,2.3388,2.3389,2.3589,2.3563,2.355,2.3522,2.351,2.3493,2.3468,2.3464,2.3438,2.341,2.3415,2.3379,2.3363,2.3328,2.3316,2.3287,2.3301,2.3286,2.3282,2.3278,2.3273,2.3376,2.3282,2.3282,2.3283,2.3283,2.3283,0,2.3494,2.3486,2.3461,2.3437,2.3415,2.3431,2.3412,2.3392,2.3361,2.3345,2.3321,2.3284,2.3255,2.3246,2.3217,2.3195,2.32,2.3187,2.3188,2.3185,2.3263,2.3274,2.3184,2.3184,2.3184,2.3184,2.3184,2.3184,2.3442,2.3399,2.34,2.335,2.3343,2.3308,2.3296,2.3281,2.3268,2.3226,2.3202,2.3198,2.3184,2.3154,2.3127,2.3126,2.3113,2.3097,2.3098,2.317,2.318,2.3189,2.3199,2.3095,2.3095,2.3022,2.3021,2.3021]}]]